Hourly Data Report for October 01, 2017

All times are specified in Local Standard Time (LST). Add 1 hour to adjust for Daylight Saving Time where and when it is observed.

SQUAMISH AIRPORT
BRITISH COLUMBIA

49°46'59.550" N
123°09'40.300" W
53.70 m
10476F0
71207
WSK

Download Data

Hourly Data (October 2017)
Hourly Data Report for October 1, 2017
Temp Definition
°C
Dew Point Temp Definition
°C
Rel Hum Definition
%
Wind Dir Definition
10's deg

Wind Spd Definition
km/h
Visibility Definition
km
Stn Press Definition
kPa
Hmdx Definition


Wind Chill Definition


Weather Definition


TIME
00:00 8.4 8.0 98 1 1   101.20     LegendNANA
01:00 7.6 7.2 98 5 2   101.21     LegendNANA
02:00 7.7 7.4 98 35 2   101.22     LegendNANA
03:00 8.3 7.9 98 35 1   101.24     LegendNANA
04:00 8.1 7.7 98 35 2   101.25     LegendNANA
05:00 8.2 7.8 98 35 2   101.27     LegendNANA
06:00 7.9 7.6 97 3 2   101.29     LegendNANA
07:00 8.2 7.9 98 34 2   101.35     LegendNANA
08:00 8.3 7.9 97 36 2   101.38     LegendNANA
09:00 11.6 9.0 84 0 1   101.37     LegendNANA
10:00 12.9 7.5 70 29 4   101.36     LegendNANA
11:00 14.7 6.5 58 36 2   101.30     LegendNANA
12:00 16.2 7.3 56 19 2   101.27     LegendNANA
13:00 16.3 6.0 51 22 6   101.25     LegendNANA
14:00 17.1 5.8 47 17 14   101.23     LegendNANA
15:00 16.2 6.1 51 15 10   101.22     LegendNANA
16:00 15.5 7.5 59 17 8   101.22     LegendNANA
17:00 14.0 7.5 65 15 6   101.25     LegendNANA
18:00 10.5 8.4 87   0   101.32     LegendNANA
19:00 9.2 7.9 92 4 2   101.36     LegendNANA
20:00 8.2 7.3 94 34 3   101.41     LegendNANA
21:00 7.7 7.1 96 7 2   101.42     LegendNANA
22:00 7.3 6.7 97 0 1   101.42     LegendNANA
23:00 6.7 6.2 97 2 3   101.44     LegendNANA

Notes on Data Quality.

Legend

  • E = Estimated
  • M = Missing
  • NA = Not Available
  • ‡ = Partner data that is not subject to review by the National Climate Archives
Date modified: